Regional Weather Roundup
Issued by NWS

Home | Current Version | Previous Version | Graphics & Text | Print | Product List | Glossary On
Versions: 1 2 3 4 5 6 7 8 9 10 11 12 13 14 15 16 17 18 19 20 21 22 23 24 25 26 27 28 29 30 31 32 33 34 35 36 37 38 39 40 41 42 43 44 45 46 47 48 49 50
000
ASUS43 KDTX 212310
RWRMI
MICHIGAN HOURLY REGIONAL WEATHER ROUNDUP
NATIONAL WEATHER SERVICE DETROIT/PONTIAC MI
700 PM EDT SUN SEP 21 2014

NOTE: "FAIR" INDICATES FEW OR NO CLOUDS BELOW 12,000 FEET WITH NO
SIGNIFICANT WEATHER AND/OR OBSTRUCTION TO VISIBILITY.

MIZ047>049-052>055-059>063-066>070-074>076-081>083-220000-
SOUTHEAST LOWER MICHIGAN

CITY           SKY/WX    TMP DP  RH WIND       PRES   REMARKS
ADRIAN         CLOUDY    57  52  83 N16G32    29.88R
ALMA           CLOUDY    53  47  78 NW16G22   29.93R
ANN ARBOR      CLOUDY    56  51  84 N20G28    29.86R
BAD AXE        LGT RAIN  51  50  98 N14G20    29.85R
CARO           RAIN      51  49  92 NW9G20    29.87R
DETROIT CITY   MOCLDY    58  50  75 N13G20    29.83R
DETROIT        MOCLDY    57  51  80 NW14      29.84R
FLINT          CLOUDY    54  49  83 N12       29.89R
GROSSE ILE     CLOUDY    59  54  82 N13G18    29.82R
HILLSDALE      CLOUDY    56  53  89 NW14G21   29.91R
HOWELL         CLOUDY    51  50  97 NW10G23   29.89R

CITY           SKY/WX    TMP DP  RH WIND       PRES   REMARKS
JACKSON        CLOUDY    55  48  77 N12G22    29.90R
LAMBERTVILLE   LGT RAIN  59  54  82 NW12G20   29.86R
LANSING        CLOUDY    54  47  77 N10G20    29.92R
LAPEER         CLOUDY    51  48  91 N13G21    29.86R
MASON          CLOUDY    53  48  83 N15       29.91R
MONROE         LGT RAIN  57  55  94 N12       29.83R
MT. CLEMENS    MOCLDY    54  51  89 NW13      29.80R
PONTIAC        LGT RAIN  53  49  86 NW16G31   29.85R FOG
PORT HOPE        N/A     53  49  86 VRB3      29.82R
PORT HURON     CLOUDY    52  50  93 NW14G24   29.82R
TRI CITIES     CLOUDY    54  49  83 NW14      29.91R
TROY           RAIN      55  52  87 NW12G17   29.85R
SAGINAW HB     LGT RAIN  52  52 100 NW9       29.89R
$$
MIZ043>046-050>051-056>058-064>065-071>073-077>080-220000-
SOUTHWEST LOWER MICHIGAN

CITY           SKY/WX    TMP DP  RH WIND       PRES   REMARKS
BATTLE CREEK   CLOUDY    57  47  69 NW23G30   29.94R
BENTON HARBOR  CLOUDY    56  48  74 N8G22     29.99R
BIG RAPIDS     CLOUDY    48  46  95 NW10G21   29.97R
COLDWATER      CLOUDY    58  50  76 NW17G23   29.93R
FREMONT        CLOUDY    50  43  77 N17       29.99R
HOLLAND        PTCLDY    56  46  69 N10G22    29.99R
GRAND RAPIDS   LGT RAIN  54  51  90 NW22G28   29.96R
IONIA          CLOUDY    55  48  75 NW8G22    29.93R
KALAMAZOO      CLOUDY    56  47  71 NW15G28   29.96R
LUDINGTON      CLOUDY    49  43  78 N12G23    30.03R
MARSHALL       CLOUDY    55  47  74 NW7G16    29.92R
MOUNT PLEASANT CLOUDY    51  45  78 NW9G20    29.93R
MUSKEGON       MOCLDY    54  43  66 N15G28    30.01R
SOUTH HAVEN    MOCLDY    56  49  76 N15G28    29.99R
$$
MIZ016>042-220000-
NORTHERN LOWER MICHIGAN

CITY           SKY/WX    TMP DP  RH WIND       PRES   REMARKS
ALPENA         CLOUDY    50  43  77 NW14G21   29.89R
BEAVER ISLAND  CLOUDY    47  38  71 N14G23    30.01R
BELLAIRE       CLOUDY    49  40  70 NW12      29.99R
CADILLAC       CLOUDY    45  40  85 NW14G22   29.97R
CHARLEVOIX     CLOUDY    49  41  72 NW17G26   30.01R
FRANKFORT      CLOUDY    49  39  67 N14G25    30.04R
GAYLORD        CLOUDY    46  39  76 NW9G17    29.94R
GRAYLING       CLOUDY    49  42  76 NW16      29.95R
HARBOR SPRINGS CLOUDY    49  38  67 NW7       29.97R
HOUGHTON LAKE  CLOUDY    49  41  74 NW15G24   29.93R
MANISTEE       CLOUDY    48  37  66 N12G23    30.04R
OSCODA         CLOUDY    50  48  92 NW14G24   29.86R
PELLSTON       CLOUDY    49  39  68 N15       29.96R
ROGERS CITY    MOCLDY    50  43  77 N14G20    29.91R
TRAVERSE CITY  CLOUDY    49  38  65 NW20G30   29.99R
$$
MIZ007>008-015-220000-
EASTERN UPPER MICHIGAN

CITY           SKY/WX    TMP DP  RH WIND       PRES   REMARKS
KINROSS        CLOUDY    48  37  66 N17G23    29.93R
MACKINAC ISLAN CLOUDY    49  40  71 N9G22     29.95R
NEWBERRY       CLOUDY    45  39  80 N14G24    29.99R
S. S. MARIE    CLOUDY    50  36  58 N9G18     29.94R
MUNISING         N/A     49  40  71 N21G28    30.06R
$$
MIZ004>006-011>014-085-220000-
CENTRAL UPPER MICHIGAN

CITY           SKY/WX    TMP DP  RH WIND       PRES   REMARKS
MANISTIQUE     CLOUDY    45  38  76 NW15G23   30.03R
ESCANABA       CLOUDY    46  36  66 N9G24     30.08R
MENOMINEE      PTCLDY    54  37  54 N12G18    30.06R
SAWYER-GWINN   CLOUDY    45  37  76 N18G24    30.07R
$$
MIZ001>003-009>011-084-220000-
WESTERN UPPER MICHIGAN

CITY           SKY/WX    TMP DP  RH WIND       PRES   REMARKS
IRON MOUNTAIN  PTCLDY    50  36  58 N14       30.08R
HOUGHTON       CLEAR     47  37  68 NW9       30.11R
COPPER HARBOR    N/A     47  39  74 N10       30.10R
IRONWOOD       CLEAR     54  39  58 W6        30.11R
$$

ABBREVIATIONS USED IN REMARKS
   TC - TEMPERATURE IN CELSIUS
  WCI - WIND CHILL INDEX
   HX - HEAT INDEX
  VSB - VISIBILITY




USA.gov is the U.S. government's official web portal to all federal, state and local government web resources and services.